Showing default

PADRE, 64559

Orbit data source: Space-Track

PADRE, 64559 is a Bulgarian payload satellite in SSO that was launched on Mon, 23 Jun 2025 UTC via an FALCON 9 launch vehicle from the Air Force Western Test Range (AFWTR). Payload-class satellites include a variety of spacecraft equipped with specific instruments for various scientific and technological missions. These include communications satellites like Starlink; space stations such as the ISS; scientific satellites like the Hubble; Earth observation satellites from companies like Planet Labs, Umbra, and HawkEye 360; GPS; miniature CubeSats for education and research; and military/defense satellites.

Loading next visibility...
Identifier
64559, 2025-135AH
Orbit
SSO
Country
Flag of BGBG / BGR
Related business
Manufacturer
Endurosat
Mission
Operational Amateur Astronomy
Bus & Motor
CUBESAT 12U, Unknown motor
Mass
~20 kg wet, ~20 kg dry
Launch date (UTC)
2025-06-23 (10 months ago)
Launch vehicle
FALCON 9
Launch site
Air Force Western Test Range (AFWTR)
Object type
Payload
Rocket body
Debris
Shape & HBR
Box + 4 Pan, 0.3 m
Radar Cross Section
0.127 m², Small (<0.1 m²)

Expand to show TLE details & history
Last TLE update: 13 hours ago

TLE from 13 hours ago
0 PADRE
1 64559U 25135AH  26119.87122736  .00002063  00000-0  20728-3 0  9993
2 64559  97.7662 234.1871 0003185  78.2750 281.8826 14.92333189 46648
Epoch: 2026-04-29T20:54Z
TLE epoch observation values (Epoch: 2026-04-29T20:54:34.043Z)
Latitude
-0.00008°
Longitude
62.71929°
Altitude
593.248 km
Speed
7.564 km/s
True Right ascension
15h 36m 44s
True Declination
0° 00' 00"
Sunlit
Object was in full shadow at epoch
Visualization orbit readout
Latitude
Unknown
Longitude
Unknown
Altitude
Unknown
Speed
Unknown
Apparent Right ascension
Unknown
Apparent Declination
Unknown
Sunlit
N/A
Visualization observer readout
Local Sidereal Time
17:28:05
Azimuth
Unknown
Elevation
Unknown
Doppler factor
Unknown
Orbital elements
Apogee altitude
589.9 km
Perigee altitude
585.462 km
Semi-major axis
6,965.818 km
Eccentricity
0.00032
Inclination
97.7662°
RAAN
234.1871°
Arg. of periapsis
78.275°
True anomaly
281.84688°
Mean anomaly
281.8826°
Eccentric anomaly
281.86474°
Mean motion
3.73323 °/min
Orbital period
96.43 mins
BSTAR
0.00020728
Loading maneuver chart data...
Computing Atmospheric mass density...
Loading historical data...
Loading historical data...
Loading historical data...
Loading historical data...
Loading historical data...
Loading historical data...
Loading historical data...

Documentation

Showing up to 5 results
|